COSMOS 2251 DEB, 35433

Orbit data source: Space-Track

COSMOS 2251 DEB, 35433 is space debris in LEO originally from a launch on Wed, 16 Jun 1993 UTC launched from the Plesetsk Missile And Space Complex (PKMTR). The debris from Iridium 33, an American commercial communications satellite, has been tracked extensively since its accidental collision with the defunct Russian satellite Cosmos 2251 in 2009. This event, occurring at high speed in low Earth orbit (LEO), generated thousands of pieces of space debris, significantly increasing the risk of further collisions. The Iridium 33 debris cloud has impacted space traffic management and orbital debris mitigation strategies, making it a subject of ongoing study in space situational awareness.

Loading next visibility...
Identifier
35433, 1993-036AKB
Orbit
LEO
Country
Flag of CISCIS
Related business
Manufacturer
Unknown
Mission
Spacecraft
Bus & Motor
Unknown
Mass
Unknown
Launch date (UTC)
1993-06-16 (33 years ago)
Launch vehicle
Unknown
Launch site
Plesetsk Missile And Space Complex (PKMTR)
Object type
Payload
Rocket body
Debris
Shape & HBR
Unknown shape, 0.1 m
Radar Cross Section
Small (<0.1 m²)

Expand to show TLE details & history
Last TLE update: 4 days ago

TLE from 4 days ago
0 COSMOS 2251 DEB
1 35433U 93036AKB 26262.08888453  .00000343  00000-0  12889-3 0  9992
2 35433  74.0355 184.6082 0026707 177.5622 196.8700 14.35101673906024
Epoch: 2026-09-19T02:07Z
TLE epoch observation values (Epoch: 2026-09-19T02:07:59.623Z)
Latitude
13.75301°
Longitude
158.601°
Altitude
794.887 km
Speed
7.448 km/s
True Right ascension
12h 34m 24s
True Declination
13° 40' 27"
Sunlit
Object was in daylight at epoch
Visualization orbit readout
Latitude
Unknown
Longitude
Unknown
Altitude
Unknown
Speed
Unknown
Apparent Right ascension
Unknown
Apparent Declination
Unknown
Sunlit
N/A
Visualization observer readout
Local Sidereal Time
12:23:20
Azimuth
Unknown
Elevation
Unknown
Doppler factor
Unknown
Orbital elements
Apogee altitude
791.45 km
Perigee altitude
753.257 km
Semi-major axis
7,150.491 km
Eccentricity
0.00267
Inclination
74.0355°
RAAN
184.6082°
Arg. of periapsis
177.5622°
True anomaly
196.78147°
Mean anomaly
196.87°
Eccentric anomaly
196.82571°
Mean motion
3.58955 °/min
Orbital period
100.29 mins
BSTAR
0.00012889
Loading maneuver chart data...
Computing Atmospheric mass density...

Documentation

Showing up to 5 results
|